Jessica S. Settoon — WDD9545 — position and weather

sailwx.info

Track history (hours):
 
Tides and Currents Weather Stations Pressure Air Temp Water Temp Dewpoint Dewpoint Depression Visibility Wind Speed Wind Dir Waves Ship Positions

Jessica S. Settoon

Owner: Settoon Towing LLC, Houma, LA. More information available from US FCC via Universal Licensing System and Coast Guard Vessel Documentation Center.

Last reported at 2014-Oct-22 07:33 UTC. Time now 2014-Oct-22 08:08 UTC.
Position N 29°47' W 091°19'.

Length 17 m; draft 3 m.

Type: Tug. MMSI: 367312940.

Date/timePositionNaut miles runAvg speedWind from/ knotsBaromVisibWave heightAir tempDewpointWater temp
2014-Oct-22 07:33N 29°47' W 091°19'0 0.0
2014-Oct-22 06:33N 29°47' W 091°19'0 0.0
2014-Oct-22 05:33N 29°47' W 091°19'0 0.0
2014-Oct-22 04:33N 29°47' W 091°19'0 0.0
2014-Oct-22 03:33N 29°47' W 091°19'0 0.0
2014-Oct-22 02:33N 29°47' W 091°19'0 0.2
2014-Oct-22 01:33N 29°47' W 091°19'3 2.5
2014-Oct-22 00:33N 29°48' W 091°16'2 2.3
2014-Oct-21 23:33N 29°48' W 091°14'3 3.0
2014-Oct-21 22:33N 29°48' W 091°10'2 2.0
2014-Oct-21 21:33N 29°46' W 091°11'0 0.0
2014-Oct-21 20:33N 29°46' W 091°11'3 2.5
2014-Oct-21 19:33N 29°43' W 091°12'2 2.2
2014-Oct-21 18:33N 29°41' W 091°12'2 1.7
2014-Oct-21 17:33N 29°41' W 091°10'0 0.0
2014-Oct-21 16:33N 29°41' W 091°10'0 0.0
2014-Oct-21 15:33N 29°41' W 091°10'0 0.0
2014-Oct-21 14:33N 29°41' W 091°10'0 0.0
2014-Oct-21 13:33N 29°41' W 091°10'0 0.0
2014-Oct-21 12:33N 29°41' W 091°10'0 0.0
2014-Oct-21 11:33N 29°41' W 091°10'0 0.0
2014-Oct-21 10:33N 29°41' W 091°10'0 0.0
2014-Oct-21 09:33N 29°41' W 091°10'0 0.0
2014-Oct-21 08:33N 29°41' W 091°10'0 0.0
2014-Oct-21 07:33N 29°41' W 091°10'0 0.0
2014-Oct-21 06:33N 29°41' W 091°10'0 0.0
2014-Oct-21 05:33N 29°41' W 091°10'0 0.0
2014-Oct-21 04:33N 29°41' W 091°10'0 0.0
2014-Oct-21 03:33N 29°41' W 091°10'0 0.0
2014-Oct-21 02:33N 29°41' W 091°10'0 0.0
2014-Oct-21 01:33N 29°41' W 091°10'0 0.0
2014-Oct-21 00:33N 29°41' W 091°10'0 0.1
2014-Oct-20 23:33N 29°41' W 091°10'6 5.9
2014-Oct-20 22:33N 29°38' W 091°05'5 5.2
2014-Oct-20 21:32N 29°37' W 090°59'1 0.0
2014-Oct-20 00:21N 29°38' W 090°58'4 4.9
2014-Oct-19 23:33N 29°37' W 091°02'6 5.7
2014-Oct-19 22:33N 29°40' W 091°08'4 3.6
2014-Oct-19 21:33N 29°41' W 091°12'2 2.3
2014-Oct-19 20:34N 29°43' W 091°12'5 4.7
2014-Oct-19 19:32N 29°48' W 091°11'3 3.2
2014-Oct-19 18:33N 29°48' W 091°14'4 3.8
2014-Oct-19 17:32N 29°47' W 091°19'1 0.6
2014-Oct-19 16:33N 29°47' W 091°19'0 0.0
2014-Oct-19 15:32N 29°47' W 091°19'0 0.0
2014-Oct-19 14:34N 29°47' W 091°19'0 0.0
2014-Oct-19 13:30N 29°47' W 091°19'0 0.0
2014-Oct-19 12:24N 29°47' W 091°19'0 0.0
2014-Oct-19 11:34N 29°47' W 091°19'0 0.0
2014-Oct-19 10:27N 29°47' W 091°19'0 0.0
2014-Oct-19 09:32N 29°47' W 091°19'0 0.0
2014-Oct-19 08:33N 29°47' W 091°19'0 0.0
2014-Oct-19 07:33N 29°47' W 091°19'0 0.0
2014-Oct-19 06:31N 29°47' W 091°19'0 0.0
2014-Oct-19 05:33N 29°47' W 091°19'0 0.0
2014-Oct-19 04:33N 29°47' W 091°19'0 0.0
2014-Oct-19 03:33N 29°47' W 091°19'0 0.0
2014-Oct-19 02:33N 29°47' W 091°19'0 0.0
2014-Oct-19 01:32N 29°47' W 091°19'0 0.0
2014-Oct-19 00:33N 29°47' W 091°19'0 0.0
2014-Oct-18 23:33N 29°47' W 091°19'1 0.6
2014-Oct-18 22:21N 29°47' W 091°19'3 3.9
2014-Oct-18 21:34N 29°48' W 091°15'3 2.8
2014-Oct-18 20:33N 29°49' W 091°12'4 4.4
2014-Oct-18 19:34N 29°45' W 091°11'4 3.7
2014-Oct-18 18:33N 29°41' W 091°11'5 5.1
2014-Oct-18 17:33N 29°38' W 091°06'7 6.1
2014-Oct-18 16:29N 29°37' W 090°59'2 0.5
2014-Oct-18 11:31N 29°37' W 090°56'0 0.0
2014-Oct-18 10:20N 29°37' W 090°56'0 0.0
2014-Oct-18 07:20N 29°37' W 090°56'0 0.0
2014-Oct-18 06:20N 29°37' W 090°56'0 0.0
2014-Oct-18 05:16N 29°37' W 090°56'0 0.1
2014-Oct-18 03:24N 29°38' W 090°56'0 0.2
2014-Oct-18 02:34N 29°38' W 090°56'0 0.0
2014-Oct-18 01:34N 29°38' W 090°56'3 2.9
2014-Oct-18 00:34N 29°37' W 090°59'6 6.1
2014-Oct-17 23:34N 29°38' W 091°06'6 5.6
2014-Oct-17 22:34N 29°41' W 091°12'5 4.9
2014-Oct-17 21:34N 29°46' W 091°11'3 3.4
2014-Oct-17 20:33N 29°49' W 091°13'3 2.7
2014-Oct-17 19:33N 29°48' W 091°16'3 2.9
2014-Oct-17 18:33N 29°47' W 091°19'0 0.0
2014-Oct-17 17:33N 29°47' W 091°19'0 0.0
2014-Oct-17 15:33N 29°47' W 091°19'0 0.0
2014-Oct-17 14:33N 29°47' W 091°19'0 0.0
2014-Oct-17 13:34N 29°47' W 091°19'0 0.0
2014-Oct-17 12:33N 29°47' W 091°19'1 0.6
2014-Oct-17 11:34N 29°47' W 091°19'0 0.0
2014-Oct-17 10:33N 29°47' W 091°19'0 0.0
2014-Oct-17 09:33N 29°47' W 091°19'0 0.0
2014-Oct-17 08:33N 29°47' W 091°19'0 0.0
2014-Oct-17 07:05N 29°47' W 091°19'0 0.0
2014-Oct-17 06:33N 29°47' W 091°19'0 0.0
2014-Oct-17 05:33N 29°47' W 091°19'0 0.0
2014-Oct-17 04:33N 29°47' W 091°19'0 0.0
2014-Oct-17 03:33N 29°47' W 091°19'0 0.0
2014-Oct-17 02:34N 29°47' W 091°19'0 0.0
2014-Oct-17 01:30N 29°47' W 091°19'0 0.1
2014-Oct-17 00:33N 29°47' W 091°19'3 3.4
2014-Oct-16 23:33N 29°48' W 091°15'3 2.9
2014-Oct-16 22:31N 29°49' W 091°12'4 3.7
2014-Oct-16 21:33N 29°45' W 091°11'4 4.1
2014-Oct-16 20:34N 29°41' W 091°12'4 4.3
2014-Oct-16 19:33N 29°39' W 091°08'1 1.5
2014-Oct-16 18:33N 29°40' W 091°06'0 0.0
2014-Oct-16 17:33N 29°40' W 091°06'0 0.0
2014-Oct-16 16:33N 29°40' W 091°06'0 0.0
2014-Oct-16 15:33N 29°40' W 091°06'0 0.0
2014-Oct-16 14:34N 29°40' W 091°06'0 0.0
2014-Oct-16 13:34N 29°40' W 091°06'0 0.0
2014-Oct-16 12:34N 29°40' W 091°06'0 0.0
2014-Oct-16 11:33N 29°40' W 091°06'0 0.0
2014-Oct-16 10:34N 29°40' W 091°06'0 0.0
2014-Oct-16 09:34N 29°40' W 091°06'0 0.0
2014-Oct-16 08:34N 29°40' W 091°06'0 0.0
2014-Oct-16 07:33N 29°40' W 091°06'0 0.0
2014-Oct-16 06:34N 29°40' W 091°06'0 0.0
2014-Oct-16 05:33N 29°40' W 091°06'0 0.0
2014-Oct-16 04:34N 29°40' W 091°06'0 0.0
2014-Oct-16 03:33N 29°40' W 091°06'0 0.0
2014-Oct-16 02:34N 29°40' W 091°06'0 0.0
2014-Oct-16 01:34N 29°40' W 091°06'0 0.0
2014-Oct-16 00:34N 29°40' W 091°06'0 0.0
2014-Oct-15 23:34N 29°40' W 091°06'0 0.0
2014-Oct-15 22:33N 29°40' W 091°06'0 0.0
2014-Oct-15 21:33N 29°40' W 091°06'0 0.0
2014-Oct-15 20:33N 29°40' W 091°06'0 0.0
2014-Oct-15 19:31N 29°40' W 091°06'0 0.0
2014-Oct-15 18:33N 29°40' W 091°06'0 0.0
2014-Oct-15 17:34N 29°40' W 091°06'0 0.0
2014-Oct-15 16:33N 29°40' W 091°06'0 0.3
2014-Oct-15 15:34N 29°40' W 091°06'0 0.0
2014-Oct-15 14:34N 29°40' W 091°06'0 0.0
2014-Oct-15 13:33N 29°40' W 091°06'0 0.1
2014-Oct-15 12:34N 29°40' W 091°06'0 0.0
2014-Oct-15 11:34N 29°40' W 091°06'0 0.0
2014-Oct-15 10:34N 29°40' W 091°06'0 0.0
2014-Oct-15 09:34N 29°40' W 091°06'0 0.0
2014-Oct-15 08:33N 29°40' W 091°06'0 0.0
2014-Oct-15 07:33N 29°40' W 091°06'4 4.0
2014-Oct-15 06:33N 29°37' W 091°02'5 4.8
2014-Oct-15 05:26N 29°38' W 090°56'0 0.2
2014-Oct-15 04:33N 29°38' W 090°56'0 0.0
2014-Oct-15 03:33N 29°38' W 090°56'0 0.2
2014-Oct-15 01:29N 29°37' W 090°56'3 3.7
2014-Oct-15 00:34N 29°37' W 091°00'6 5.9
2014-Oct-14 23:34N 29°38' W 091°07'5 5.1
2014-Oct-14 22:33N 29°41' W 091°12'2 2.3
2014-Oct-14 21:33N 29°44' W 091°11'5 4.8
2014-Oct-14 20:29N 29°49' W 091°11'3 2.7
2014-Oct-14 19:33N 29°48' W 091°14'5 2.2
2014-Oct-14 17:26N 29°47' W 091°19'0 0.0
2014-Oct-14 16:29N 29°47' W 091°19'0 0.0
2014-Oct-14 15:34N 29°47' W 091°19'0 0.0
2014-Oct-14 14:31N 29°47' W 091°19'0 0.0
2014-Oct-14 13:11N 29°47' W 091°19'0 0.0
2014-Oct-14 12:31N 29°47' W 091°19'0 0.0
2014-Oct-14 11:34N 29°47' W 091°19'0 0.0
2014-Oct-14 10:32N 29°47' W 091°19'0 0.0
2014-Oct-14 09:33N 29°47' W 091°19'0 0.0
2014-Oct-14 08:23N 29°47' W 091°19'0 0.0
2014-Oct-14 07:32N 29°47' W 091°19'0 0.0
2014-Oct-14 06:29N 29°47' W 091°19'3 3.4
2014-Oct-14 05:31N 29°48' W 091°16'2 2.4
2014-Oct-14 04:31N 29°49' W 091°13'3 3.3
2014-Oct-14 03:33N 29°46' W 091°11'1 0.6
2014-Oct-14 02:33N 29°46' W 091°11'0 0.0
2014-Oct-14 01:33N 29°46' W 091°11'0 0.0
2014-Oct-14 00:33N 29°46' W 091°11'3 3.2
2014-Oct-13 23:33N 29°49' W 091°12'0 0.0
2014-Oct-13 22:33N 29°49' W 091°12'0 0.0
2014-Oct-13 21:32N 29°49' W 091°12'0 0.0
2014-Oct-13 20:33N 29°49' W 091°12'0 0.0
2014-Oct-13 19:31N 29°49' W 091°12'0 0.0
2014-Oct-13 15:13N 29°49' W 091°12'0 0.0
2014-Oct-13 14:33N 29°49' W 091°12'0 0.0
2014-Oct-13 13:26N 29°49' W 091°12'0 0.0
2014-Oct-13 12:33N 29°49' W 091°12'0 0.0
2014-Oct-13 11:33N 29°49' W 091°12'0 0.0
2014-Oct-13 10:33N 29°49' W 091°12'0 0.0
2014-Oct-13 09:33N 29°49' W 091°12'0 0.0
2014-Oct-13 08:33N 29°49' W 091°12'0 0.0
2014-Oct-13 07:33N 29°49' W 091°12'0 0.0
2014-Oct-13 06:33N 29°49' W 091°12'0 0.0
2014-Oct-13 05:33N 29°49' W 091°12'0 0.0
2014-Oct-13 04:33N 29°49' W 091°12'0 0.0
2014-Oct-13 03:32N 29°49' W 091°12'2 2.2
2014-Oct-13 02:33N 29°47' W 091°11'1 1.1
2014-Oct-13 01:33N 29°46' W 091°11'0 0.0
2014-Oct-13 00:33N 29°46' W 091°11'0 0.0
2014-Oct-12 23:33N 29°46' W 091°11'0 0.0
2014-Oct-12 22:33N 29°46' W 091°11'0 0.0
2014-Oct-12 21:33N 29°46' W 091°11'0 0.0
2014-Oct-12 20:33N 29°46' W 091°11'0 0.0
2014-Oct-12 19:33N 29°46' W 091°11'0 0.0
2014-Oct-12 18:33N 29°46' W 091°11'0 0.0
2014-Oct-12 17:33N 29°46' W 091°11'3 2.9
2014-Oct-12 16:33N 29°43' W 091°13'2 2.1
2014-Oct-12 15:33N 29°41' W 091°12'4 4.4
2014-Oct-12 14:33N 29°39' W 091°08'7 6.2
2014-Oct-12 13:28N 29°37' W 091°00'4 3.9
2014-Oct-12 12:33N 29°37' W 090°56'0 0.1
2014-Oct-12 11:33N 29°37' W 090°56'0 0.0
2014-Oct-12 10:33N 29°37' W 090°56'0 0.0
2014-Oct-12 09:33N 29°37' W 090°56'0 0.0
2014-Oct-12 08:32N 29°37' W 090°56'  
Track history (hours):
 
Tides and Currents Weather Stations Pressure Air Temp Water Temp Dewpoint Dewpoint Depression Visibility Wind Speed Wind Dir Waves Ship Positions

Jessica S. Settoon

Owner: Settoon Towing LLC, Houma, LA. More information available from US FCC via Universal Licensing System and Coast Guard Vessel Documentation Center.

Last reported at 2014-Oct-22 07:33 UTC. Time now 2014-Oct-22 08:08 UTC.
Position N 29°47' W 091°19'.

Length 17 m; draft 3 m.

Type: Tug. MMSI: 367312940.

Date/timePositionNaut miles runAvg speedWind from/ knotsBaromVisibWave heightAir tempDewpointWater temp
2014-Oct-22 07:33N 29°47' W 091°19'0 0.0
2014-Oct-22 06:33N 29°47' W 091°19'0 0.0
2014-Oct-22 05:33N 29°47' W 091°19'0 0.0
2014-Oct-22 04:33N 29°47' W 091°19'0 0.0
2014-Oct-22 03:33N 29°47' W 091°19'0 0.0
2014-Oct-22 02:33N 29°47' W 091°19'0 0.2
2014-Oct-22 01:33N 29°47' W 091°19'3 2.5
2014-Oct-22 00:33N 29°48' W 091°16'2 2.3
2014-Oct-21 23:33N 29°48' W 091°14'3 3.0
2014-Oct-21 22:33N 29°48' W 091°10'2 2.0
2014-Oct-21 21:33N 29°46' W 091°11'0 0.0
2014-Oct-21 20:33N 29°46' W 091°11'3 2.5
2014-Oct-21 19:33N 29°43' W 091°12'2 2.2
2014-Oct-21 18:33N 29°41' W 091°12'2 1.7
2014-Oct-21 17:33N 29°41' W 091°10'0 0.0
2014-Oct-21 16:33N 29°41' W 091°10'0 0.0
2014-Oct-21 15:33N 29°41' W 091°10'0 0.0
2014-Oct-21 14:33N 29°41' W 091°10'0 0.0
2014-Oct-21 13:33N 29°41' W 091°10'0 0.0
2014-Oct-21 12:33N 29°41' W 091°10'0 0.0
2014-Oct-21 11:33N 29°41' W 091°10'0 0.0
2014-Oct-21 10:33N 29°41' W 091°10'0 0.0
2014-Oct-21 09:33N 29°41' W 091°10'0 0.0
2014-Oct-21 08:33N 29°41' W 091°10'0 0.0
2014-Oct-21 07:33N 29°41' W 091°10'0 0.0
2014-Oct-21 06:33N 29°41' W 091°10'0 0.0
2014-Oct-21 05:33N 29°41' W 091°10'0 0.0
2014-Oct-21 04:33N 29°41' W 091°10'0 0.0
2014-Oct-21 03:33N 29°41' W 091°10'0 0.0
2014-Oct-21 02:33N 29°41' W 091°10'0 0.0
2014-Oct-21 01:33N 29°41' W 091°10'0 0.0
2014-Oct-21 00:33N 29°41' W 091°10'0 0.1
2014-Oct-20 23:33N 29°41' W 091°10'6 5.9
2014-Oct-20 22:33N 29°38' W 091°05'5 5.2
2014-Oct-20 21:32N 29°37' W 090°59'1 0.0
2014-Oct-20 00:21N 29°38' W 090°58'4 4.9
2014-Oct-19 23:33N 29°37' W 091°02'6 5.7
2014-Oct-19 22:33N 29°40' W 091°08'4 3.6
2014-Oct-19 21:33N 29°41' W 091°12'2 2.3
2014-Oct-19 20:34N 29°43' W 091°12'5 4.7
2014-Oct-19 19:32N 29°48' W 091°11'3 3.2
2014-Oct-19 18:33N 29°48' W 091°14'4 3.8
2014-Oct-19 17:32N 29°47' W 091°19'1 0.6
2014-Oct-19 16:33N 29°47' W 091°19'0 0.0
2014-Oct-19 15:32N 29°47' W 091°19'0 0.0
2014-Oct-19 14:34N 29°47' W 091°19'0 0.0
2014-Oct-19 13:30N 29°47' W 091°19'0 0.0
2014-Oct-19 12:24N 29°47' W 091°19'0 0.0
2014-Oct-19 11:34N 29°47' W 091°19'0 0.0
2014-Oct-19 10:27N 29°47' W 091°19'0 0.0
2014-Oct-19 09:32N 29°47' W 091°19'0 0.0
2014-Oct-19 08:33N 29°47' W 091°19'0 0.0
2014-Oct-19 07:33N 29°47' W 091°19'0 0.0
2014-Oct-19 06:31N 29°47' W 091°19'0 0.0
2014-Oct-19 05:33N 29°47' W 091°19'0 0.0
2014-Oct-19 04:33N 29°47' W 091°19'0 0.0
2014-Oct-19 03:33N 29°47' W 091°19'0 0.0
2014-Oct-19 02:33N 29°47' W 091°19'0 0.0
2014-Oct-19 01:32N 29°47' W 091°19'0 0.0
2014-Oct-19 00:33N 29°47' W 091°19'0 0.0
2014-Oct-18 23:33N 29°47' W 091°19'1 0.6
2014-Oct-18 22:21N 29°47' W 091°19'3 3.9
2014-Oct-18 21:34N 29°48' W 091°15'3 2.8
2014-Oct-18 20:33N 29°49' W 091°12'4 4.4
2014-Oct-18 19:34N 29°45' W 091°11'4 3.7
2014-Oct-18 18:33N 29°41' W 091°11'5 5.1
2014-Oct-18 17:33N 29°38' W 091°06'7 6.1
2014-Oct-18 16:29N 29°37' W 090°59'2 0.5
2014-Oct-18 11:31N 29°37' W 090°56'0 0.0
2014-Oct-18 10:20N 29°37' W 090°56'0 0.0
2014-Oct-18 07:20N 29°37' W 090°56'0 0.0
2014-Oct-18 06:20N 29°37' W 090°56'0 0.0
2014-Oct-18 05:16N 29°37' W 090°56'0 0.1
2014-Oct-18 03:24N 29°38' W 090°56'0 0.2
2014-Oct-18 02:34N 29°38' W 090°56'0 0.0
2014-Oct-18 01:34N 29°38' W 090°56'3 2.9
2014-Oct-18 00:34N 29°37' W 090°59'6 6.1
2014-Oct-17 23:34N 29°38' W 091°06'6 5.6
2014-Oct-17 22:34N 29°41' W 091°12'5 4.9
2014-Oct-17 21:34N 29°46' W 091°11'3 3.4
2014-Oct-17 20:33N 29°49' W 091°13'3 2.7
2014-Oct-17 19:33N 29°48' W 091°16'3 2.9
2014-Oct-17 18:33N 29°47' W 091°19'0 0.0
2014-Oct-17 17:33N 29°47' W 091°19'0 0.0
2014-Oct-17 15:33N 29°47' W 091°19'0 0.0
2014-Oct-17 14:33N 29°47' W 091°19'0 0.0
2014-Oct-17 13:34N 29°47' W 091°19'0 0.0
2014-Oct-17 12:33N 29°47' W 091°19'1 0.6
2014-Oct-17 11:34N 29°47' W 091°19'0 0.0
2014-Oct-17 10:33N 29°47' W 091°19'0 0.0
2014-Oct-17 09:33N 29°47' W 091°19'0 0.0
2014-Oct-17 08:33N 29°47' W 091°19'0 0.0
2014-Oct-17 07:05N 29°47' W 091°19'0 0.0
2014-Oct-17 06:33N 29°47' W 091°19'0 0.0
2014-Oct-17 05:33N 29°47' W 091°19'0 0.0
2014-Oct-17 04:33N 29°47' W 091°19'0 0.0
2014-Oct-17 03:33N 29°47' W 091°19'0 0.0
2014-Oct-17 02:34N 29°47' W 091°19'0 0.0
2014-Oct-17 01:30N 29°47' W 091°19'0 0.1
2014-Oct-17 00:33N 29°47' W 091°19'3 3.4
2014-Oct-16 23:33N 29°48' W 091°15'3 2.9
2014-Oct-16 22:31N 29°49' W 091°12'4 3.7
2014-Oct-16 21:33N 29°45' W 091°11'4 4.1
2014-Oct-16 20:34N 29°41' W 091°12'4 4.3
2014-Oct-16 19:33N 29°39' W 091°08'1 1.5
2014-Oct-16 18:33N 29°40' W 091°06'0 0.0
2014-Oct-16 17:33N 29°40' W 091°06'0 0.0
2014-Oct-16 16:33N 29°40' W 091°06'0 0.0
2014-Oct-16 15:33N 29°40' W 091°06'0 0.0
2014-Oct-16 14:34N 29°40' W 091°06'0 0.0
2014-Oct-16 13:34N 29°40' W 091°06'0 0.0
2014-Oct-16 12:34N 29°40' W 091°06'0 0.0
2014-Oct-16 11:33N 29°40' W 091°06'0 0.0
2014-Oct-16 10:34N 29°40' W 091°06'0 0.0
2014-Oct-16 09:34N 29°40' W 091°06'0 0.0
2014-Oct-16 08:34N 29°40' W 091°06'0 0.0
2014-Oct-16 07:33N 29°40' W 091°06'0 0.0
2014-Oct-16 06:34N 29°40' W 091°06'0 0.0
2014-Oct-16 05:33N 29°40' W 091°06'0 0.0
2014-Oct-16 04:34N 29°40' W 091°06'0 0.0
2014-Oct-16 03:33N 29°40' W 091°06'0 0.0
2014-Oct-16 02:34N 29°40' W 091°06'0 0.0
2014-Oct-16 01:34N 29°40' W 091°06'0 0.0
2014-Oct-16 00:34N 29°40' W 091°06'0 0.0
2014-Oct-15 23:34N 29°40' W 091°06'0 0.0
2014-Oct-15 22:33N 29°40' W 091°06'0 0.0
2014-Oct-15 21:33N 29°40' W 091°06'0 0.0
2014-Oct-15 20:33N 29°40' W 091°06'0 0.0
2014-Oct-15 19:31N 29°40' W 091°06'0 0.0
2014-Oct-15 18:33N 29°40' W 091°06'0 0.0
2014-Oct-15 17:34N 29°40' W 091°06'0 0.0
2014-Oct-15 16:33N 29°40' W 091°06'0 0.3
2014-Oct-15 15:34N 29°40' W 091°06'0 0.0
2014-Oct-15 14:34N 29°40' W 091°06'0 0.0
2014-Oct-15 13:33N 29°40' W 091°06'0 0.1
2014-Oct-15 12:34N 29°40' W 091°06'0 0.0
2014-Oct-15 11:34N 29°40' W 091°06'0 0.0
2014-Oct-15 10:34N 29°40' W 091°06'0 0.0
2014-Oct-15 09:34N 29°40' W 091°06'0 0.0
2014-Oct-15 08:33N 29°40' W 091°06'0 0.0
2014-Oct-15 07:33N 29°40' W 091°06'4 4.0
2014-Oct-15 06:33N 29°37' W 091°02'5 4.8
2014-Oct-15 05:26N 29°38' W 090°56'0 0.2
2014-Oct-15 04:33N 29°38' W 090°56'0 0.0
2014-Oct-15 03:33N 29°38' W 090°56'0 0.2
2014-Oct-15 01:29N 29°37' W 090°56'3 3.7
2014-Oct-15 00:34N 29°37' W 091°00'6 5.9
2014-Oct-14 23:34N 29°38' W 091°07'5 5.1
2014-Oct-14 22:33N 29°41' W 091°12'2 2.3
2014-Oct-14 21:33N 29°44' W 091°11'5 4.8
2014-Oct-14 20:29N 29°49' W 091°11'3 2.7
2014-Oct-14 19:33N 29°48' W 091°14'5 2.2
2014-Oct-14 17:26N 29°47' W 091°19'0 0.0
2014-Oct-14 16:29N 29°47' W 091°19'0 0.0
2014-Oct-14 15:34N 29°47' W 091°19'0 0.0
2014-Oct-14 14:31N 29°47' W 091°19'0 0.0
2014-Oct-14 13:11N 29°47' W 091°19'0 0.0
2014-Oct-14 12:31N 29°47' W 091°19'0 0.0
2014-Oct-14 11:34N 29°47' W 091°19'0 0.0
2014-Oct-14 10:32N 29°47' W 091°19'0 0.0
2014-Oct-14 09:33N 29°47' W 091°19'0 0.0
2014-Oct-14 08:23N 29°47' W 091°19'0 0.0
2014-Oct-14 07:32N 29°47' W 091°19'0 0.0
2014-Oct-14 06:29N 29°47' W 091°19'3 3.4
2014-Oct-14 05:31N 29°48' W 091°16'2 2.4
2014-Oct-14 04:31N 29°49' W 091°13'3 3.3
2014-Oct-14 03:33N 29°46' W 091°11'1 0.6
2014-Oct-14 02:33N 29°46' W 091°11'0 0.0
2014-Oct-14 01:33N 29°46' W 091°11'0 0.0
2014-Oct-14 00:33N 29°46' W 091°11'3 3.2
2014-Oct-13 23:33N 29°49' W 091°12'0 0.0
2014-Oct-13 22:33N 29°49' W 091°12'0 0.0
2014-Oct-13 21:32N 29°49' W 091°12'0 0.0
2014-Oct-13 20:33N 29°49' W 091°12'0 0.0
2014-Oct-13 19:31N 29°49' W 091°12'0 0.0
2014-Oct-13 15:13N 29°49' W 091°12'0 0.0
2014-Oct-13 14:33N 29°49' W 091°12'0 0.0
2014-Oct-13 13:26N 29°49' W 091°12'0 0.0
2014-Oct-13 12:33N 29°49' W 091°12'0 0.0
2014-Oct-13 11:33N 29°49' W 091°12'0 0.0
2014-Oct-13 10:33N 29°49' W 091°12'0 0.0
2014-Oct-13 09:33N 29°49' W 091°12'0 0.0
2014-Oct-13 08:33N 29°49' W 091°12'0 0.0
2014-Oct-13 07:33N 29°49' W 091°12'0 0.0
2014-Oct-13 06:33N 29°49' W 091°12'0 0.0
2014-Oct-13 05:33N 29°49' W 091°12'0 0.0
2014-Oct-13 04:33N 29°49' W 091°12'0 0.0
2014-Oct-13 03:32N 29°49' W 091°12'2 2.2
2014-Oct-13 02:33N 29°47' W 091°11'1 1.1
2014-Oct-13 01:33N 29°46' W 091°11'0 0.0
2014-Oct-13 00:33N 29°46' W 091°11'0 0.0
2014-Oct-12 23:33N 29°46' W 091°11'0 0.0
2014-Oct-12 22:33N 29°46' W 091°11'0 0.0
2014-Oct-12 21:33N 29°46' W 091°11'0 0.0
2014-Oct-12 20:33N 29°46' W 091°11'0 0.0
2014-Oct-12 19:33N 29°46' W 091°11'0 0.0
2014-Oct-12 18:33N 29°46' W 091°11'0 0.0
2014-Oct-12 17:33N 29°46' W 091°11'3 2.9
2014-Oct-12 16:33N 29°43' W 091°13'2 2.1
2014-Oct-12 15:33N 29°41' W 091°12'4 4.4
2014-Oct-12 14:33N 29°39' W 091°08'7 6.2
2014-Oct-12 13:28N 29°37' W 091°00'4 3.9
2014-Oct-12 12:33N 29°37' W 090°56'0 0.1
2014-Oct-12 11:33N 29°37' W 090°56'0 0.0
2014-Oct-12 10:33N 29°37' W 090°56'0 0.0
2014-Oct-12 09:33N 29°37' W 090°56'0 0.0
2014-Oct-12 08:32N 29°37' W 090°56'  

Dump ship's entire track history